Lid_Strength_Index
6 6 6 5 2 2 2 2 3 3 3 3 3 4 3 3 3 3 4 4 4 4 5 5 5 6 5 4 5 6 6 7
7 7 7 3 2 2 2 3 3 4 4 4 4 4 4 4 3 3 4 5 4 5 5 5 5 6 5 4 6 8 8 8
4 4 4 4 3 3 3 3 3 3 4 4 5 4 5 4 4 4 4 5 6 6 6 5 6 6 5 6 5 8 8 8
6 5 6 6 5 4 3 3 3 3 3 5 5 5 5 5 5 5 5 5 5 6 6 6 6 6 5 5 6 7 9 9
5 6 6 6 6 4 3 4 3 3 4 5 5 5 5 5 5 5 4 5 5 5 5 5 6 6 5 5 6 7 8 9
7 7 6 6 5 4 3 3 4 3 4 4 4 4 3 4 4 4 5 5 5 5 5 5 5 5 5 5 6 7 7 8
10 9 8 7 6 6 5 3 3 3 4 5 5 4 4 3 3 4 5 5 5 5 5 5 5 5 4 6 5 7 7 7
11 11 11 11 10 10 8 5 4 3 3 4 4 4 4 4 3 2 4 5 5 5 5 5 5 5 5 5 5 7 6 7
11 10 10 11 10 10 9 8 6 3 3 3 4 3 4 4 3 2 2 3 4 4 4 5 5 5 5 4 5 6 6 7
10 9 9 9 8 9 9 8 7 4 2 2 4 4 4 3 3 3 2 2 3 3 4 5 5 5 5 4 5 5 6 6
7 8 8 9 9 8 7 6 5 5 4 2 3 3 3 3 3 3 3 3 3 4 4 4 6 5 5 4 5 5 6 5
7 6 6 5 5 4 4 4 3 4 4 2 2 3 4 4 4 4 3 3 4 4 4 4 4 5 5 5 6 6 6 6
6 5 4 4 3 3 3 3 4 4 4 4 4 4 3 3 4 4 5 4 3 4 4 5 5 5 6 6 6 7 7 8
6 4 4 4 3 3 3 4 3 4 4 4 3 4 5 5 4 4 4 4 4 4 5 5 7 7 9 8 8 10 9 10
5 5 5 4 3 3 3 4 3 3 4 3 5 4 5 4 5 5 5 4 6 8 9 10 10 9 9 9 10 11 11 12
5 5 5 4 4 4 4 3 4 4 4 4 4 5 5 4 5 5 4 4 6 9 9 8 8 8 9 10 10 11 12 12
5 5 4 4 4 4 4 3 4 6 5 4 5 6 6 6 5 6 6 6 7 7 7 8 8 8 10 10 10 11 12 13
5 5 4 4 4 3 4 5 5 6 6 6 6 7 8 8 8 8 8 8 8 8 7 7 8 9 9 10 10 11 12 13
5 4 4 4 4 4 4 5 6 6 6 7 8 9 10 10 10 10 10 10 11 10 10 10 10 10 10 11 11 11 12 13